Location: Bazugues
(43.4465°N, 0.3432°E)
Time: 10:03:50
(UTC+00:00)

NOAA 6 - Pass Details

Date: 12 January 2026
Orbit: 767 x 780 km, 98.6° (Epoch: 11 February)

Event Time Altitude Azimuth Distance (km) Brightness Sun altitude
Rises 18:57:08 0° 172° (S) 3,222 7.2 -23.5°
Reaches altitude 10° 18:59:27 10° 175° (S) 2,301 6.5 -23.9°
Maximum altitude 19:04:29 67° 258° (WSW) 834 4.3 -24.8°
Drops below altitude 10° 19:09:35 10° 341° (NNW) 2,324 6.6 -25.8°
Sets 19:11:56 0° 344° (NNW) 3,257 7.4 -26.2°
